Location: *
(46.1006°N, 1.8394°E)
Time: 08:45:54
(UTC+00:00)

Cosmos 1980 - Pass Details

Date: 20 September 2019
Orbit: 841 x 845 km, 71.0° (Epoch: 17 October)

Event Time Altitude Azimuth Distance (km) Brightness Sun altitude
Rises 19:21:12 0° 332° (NNW) 3,407 7.6 -15.5°
Reaches altitude 10° 19:23:39 10° 332° (NNW) 2,468 6.8 -15.9°
Maximum altitude 19:29:19 82° 246° (WSW) 855 3.7 -16.8°
Enters shadow 19:34:03 15° 160° (SSE) 2,114 5.4 -17.6°
